Time,TemperatureF,DewpointF,PressureIn,WindDirection,WindDirectionDegrees,WindSpeedMPH,WindSpeedGustMPH,Humidity,HourlyPrecipIn,Conditions,Clouds,dailyrainin,SoftwareType,DateUTC
2013-03-22 00:00:00,40.0,37.0,-100.00,North,-999,-999.0,-999.0,89,-99.99,,,-99.99,,2013-03-22 00:00:00,
2013-03-22 00:41:00,40.0,37.0,-100.00,North,-999,-999.0,-999.0,89,-99.99,,,-99.99,,2013-03-22 00:41:00,
2013-03-22 00:51:00,40.0,37.0,-100.00,North,-999,-999.0,-999.0,89,-99.99,,,-99.99,,2013-03-22 00:51:00,
2013-03-22 01:00:00,38.0,35.0,-100.00,North,-999,-999.0,-999.0,90,-99.99,,,-99.99,,2013-03-22 01:00:00,
2013-03-22 01:42:00,38.0,35.0,-100.00,North,-999,-999.0,-999.0,90,-99.99,,,-99.99,,2013-03-22 01:42:00,
2013-03-22 01:51:00,38.0,35.0,-100.00,North,-999,-999.0,-999.0,90,-99.99,,,-99.99,,2013-03-22 01:51:00,
2013-03-22 02:00:00,38.0,36.0,-100.00,North,-999,-999.0,-999.0,92,-99.99,,,-99.99,,2013-03-22 02:00:00,
2013-03-22 02:41:00,38.0,36.0,-100.00,North,-999,-999.0,-999.0,92,-99.99,,,-99.99,,2013-03-22 02:41:00,
2013-03-22 02:51:00,38.0,36.0,-100.00,North,-999,-999.0,-999.0,92,-99.99,,,-99.99,,2013-03-22 02:51:00,
2013-03-22 03:00:00,39.0,37.0,-100.00,North,-999,-999.0,-999.0,92,-99.99,,,-99.99,,2013-03-22 03:00:00,
2013-03-22 03:42:00,39.0,37.0,-100.00,North,-999,-999.0,-999.0,92,-99.99,,,-99.99,,2013-03-22 03:42:00,
2013-03-22 03:52:00,39.0,37.0,-100.00,North,-999,-999.0,-999.0,92,-99.99,,,-99.99,,2013-03-22 03:52:00,
2013-03-22 04:00:00,40.0,37.0,-100.00,North,-999,-999.0,-999.0,89,-99.99,,,-99.99,,2013-03-22 04:00:00,
2013-03-22 04:32:00,40.0,37.0,-100.00,North,-999,-999.0,-999.0,89,-99.99,,,-99.99,,2013-03-22 04:32:00,
2013-03-22 04:42:00,40.0,37.0,-100.00,North,-999,-999.0,-999.0,89,-99.99,,,-99.99,,2013-03-22 04:42:00,
2013-03-22 04:52:00,40.0,37.0,-100.00,North,-999,-999.0,-999.0,89,-99.99,,,-99.99,,2013-03-22 04:52:00,
2013-03-22 05:00:00,38.0,35.0,-100.00,North,-999,-999.0,-999.0,87,-99.99,,,-99.99,,2013-03-22 05:00:00,
2013-03-22 05:41:00,38.0,35.0,-100.00,North,-999,-999.0,-999.0,87,-99.99,,,-99.99,,2013-03-22 05:41:00,
2013-03-22 05:52:00,38.0,35.0,-100.00,North,-999,-999.0,-999.0,87,-99.99,,,-99.99,,2013-03-22 05:52:00,
2013-03-22 06:00:00,43.0,39.0,-100.00,North,-999,-999.0,-999.0,85,-99.99,,,-99.99,,2013-03-22 06:00:00,
2013-03-22 06:31:00,43.0,39.0,-100.00,North,-999,-999.0,-999.0,85,-99.99,,,-99.99,,2013-03-22 06:31:00,
2013-03-22 06:41:00,43.0,39.0,-100.00,North,-999,-999.0,-999.0,85,-99.99,,,-99.99,,2013-03-22 06:41:00,
2013-03-22 06:51:00,43.0,39.0,-100.00,North,-999,-999.0,-999.0,85,-99.99,,,-99.99,,2013-03-22 06:51:00,
2013-03-22 07:00:00,43.0,40.0,-100.00,North,-999,-999.0,-999.0,89,-99.99,,,-99.99,,2013-03-22 07:00:00,
2013-03-22 07:41:00,43.0,40.0,-100.00,North,-999,-999.0,-999.0,89,-99.99,,,-99.99,,2013-03-22 07:41:00,
2013-03-22 07:52:00,43.0,40.0,-100.00,North,-999,-999.0,-999.0,89,-99.99,,,-99.99,,2013-03-22 07:52:00,
2013-03-22 08:00:00,42.0,40.0,-100.00,North,-999,-999.0,-999.0,90,-99.99,,,-99.99,,2013-03-22 08:00:00,
2013-03-22 08:31:00,42.0,40.0,-100.00,North,-999,-999.0,-999.0,90,-99.99,,,-99.99,,2013-03-22 08:31:00,
2013-03-22 08:41:00,42.0,40.0,-100.00,North,-999,-999.0,-999.0,90,-99.99,,,-99.99,,2013-03-22 08:41:00,
2013-03-22 08:51:00,42.0,40.0,-100.00,North,-999,-999.0,-999.0,90,-99.99,,,-99.99,,2013-03-22 08:51:00,
2013-03-22 09:00:00,42.0,40.0,-100.00,North,-999,-999.0,-999.0,94,-99.99,,,-99.99,,2013-03-22 09:00:00,
2013-03-22 09:42:00,42.0,40.0,-100.00,North,-999,-999.0,-999.0,94,-99.99,,,-99.99,,2013-03-22 09:42:00,
2013-03-22 09:53:00,42.0,40.0,-100.00,North,-999,-999.0,-999.0,94,-99.99,,,-99.99,,2013-03-22 09:53:00,
2013-03-22 10:00:00,41.0,40.0,-100.00,North,-999,-999.0,-999.0,96,-99.99,,,-99.99,,2013-03-22 10:00:00,
2013-03-22 10:41:00,41.0,40.0,-100.00,North,-999,-999.0,-999.0,96,-99.99,,,-99.99,,2013-03-22 10:41:00,
2013-03-22 10:52:00,41.0,40.0,-100.00,North,-999,-999.0,-999.0,96,-99.99,,,-99.99,,2013-03-22 10:52:00,
2013-03-22 11:00:00,41.0,40.0,-100.00,North,-999,-999.0,-999.0,95,-99.99,,,-99.99,,2013-03-22 11:00:00,
2013-03-22 11:41:00,41.0,40.0,-100.00,North,-999,-999.0,-999.0,95,-99.99,,,-99.99,,2013-03-22 11:41:00,
2013-03-22 11:51:00,41.0,40.0,-100.00,North,-999,-999.0,-999.0,95,-99.99,,,-99.99,,2013-03-22 11:51:00,
2013-03-22 12:00:00,41.0,39.0,-100.00,North,-999,-999.0,-999.0,90,-99.99,,,-99.99,,2013-03-22 12:00:00,
2013-03-22 12:41:00,41.0,39.0,-100.00,North,-999,-999.0,-999.0,90,-99.99,,,-99.99,,2013-03-22 12:41:00,
2013-03-22 12:51:00,41.0,39.0,-100.00,North,-999,-999.0,-999.0,90,-99.99,,,-99.99,,2013-03-22 12:51:00,
2013-03-22 13:00:00,41.0,38.0,-100.00,North,-999,-999.0,-999.0,88,-99.99,,,-99.99,,2013-03-22 13:00:00,
2013-03-22 13:41:00,41.0,38.0,-100.00,North,-999,-999.0,-999.0,88,-99.99,,,-99.99,,2013-03-22 13:41:00,
2013-03-22 13:52:00,41.0,38.0,-100.00,North,-999,-999.0,-999.0,88,-99.99,,,-99.99,,2013-03-22 13:52:00,
2013-03-22 14:00:00,38.0,35.0,-100.00,North,-999,-999.0,-999.0,86,-99.99,,,-99.99,,2013-03-22 14:00:00,
2013-03-22 14:41:00,38.0,35.0,-100.00,North,-999,-999.0,-999.0,86,-99.99,,,-99.99,,2013-03-22 14:41:00,
2013-03-22 14:51:00,38.0,35.0,-100.00,North,-999,-999.0,-999.0,86,-99.99,,,-99.99,,2013-03-22 14:51:00,
2013-03-22 15:00:00,38.0,34.0,-100.00,North,-999,-999.0,-999.0,85,-99.99,,,-99.99,,2013-03-22 15:00:00,
2013-03-22 15:42:00,38.0,34.0,-100.00,North,-999,-999.0,-999.0,85,-99.99,,,-99.99,,2013-03-22 15:42:00,
2013-03-22 15:52:00,38.0,34.0,-100.00,North,-999,-999.0,-999.0,85,-99.99,,,-99.99,,2013-03-22 15:52:00,
2013-03-22 16:00:00,38.0,34.0,-100.00,North,-999,-999.0,-999.0,86,-99.99,,,-99.99,,2013-03-22 16:00:00,
2013-03-22 16:41:00,38.0,34.0,-100.00,North,-999,-999.0,-999.0,86,-99.99,,,-99.99,,2013-03-22 16:41:00,
2013-03-22 16:52:00,38.0,34.0,-100.00,North,-999,-999.0,-999.0,86,-99.99,,,-99.99,,2013-03-22 16:52:00,
2013-03-22 17:00:00,37.0,35.0,-100.00,North,-999,-999.0,-999.0,89,-99.99,,,-99.99,,2013-03-22 17:00:00,
2013-03-22 17:41:00,37.0,35.0,-100.00,North,-999,-999.0,-999.0,89,-99.99,,,-99.99,,2013-03-22 17:41:00,
2013-03-22 17:51:00,37.0,35.0,-100.00,North,-999,-999.0,-999.0,89,-99.99,,,-99.99,,2013-03-22 17:51:00,
2013-03-22 18:00:00,38.0,35.0,-100.00,North,-999,-999.0,-999.0,88,-99.99,,,-99.99,,2013-03-22 18:00:00,
2013-03-22 18:52:00,38.0,35.0,-100.00,North,-999,-999.0,-999.0,88,-99.99,,,-99.99,,2013-03-22 18:52:00,
2013-03-22 19:00:00,38.0,34.0,-100.00,North,-999,-999.0,-999.0,87,-99.99,,,-99.99,,2013-03-22 19:00:00,
2013-03-22 19:32:00,38.0,34.0,-100.00,North,-999,-999.0,-999.0,87,-99.99,,,-99.99,,2013-03-22 19:32:00,
2013-03-22 19:41:00,38.0,34.0,-100.00,North,-999,-999.0,-999.0,87,-99.99,,,-99.99,,2013-03-22 19:41:00,
2013-03-22 19:51:00,38.0,34.0,-100.00,North,-999,-999.0,-999.0,87,-99.99,,,-99.99,,2013-03-22 19:51:00,
2013-03-22 20:00:00,37.0,34.0,-100.00,North,-999,-999.0,-999.0,89,-99.99,,,-99.99,,2013-03-22 20:00:00,
2013-03-22 20:41:00,37.0,34.0,-100.00,North,-999,-999.0,-999.0,89,-99.99,,,-99.99,,2013-03-22 20:41:00,
2013-03-22 20:51:00,37.0,34.0,-100.00,North,-999,-999.0,-999.0,89,-99.99,,,-99.99,,2013-03-22 20:51:00,
2013-03-22 21:00:00,37.0,34.0,-100.00,North,-999,-999.0,-999.0,87,-99.99,,,-99.99,,2013-03-22 21:00:00,
2013-03-22 21:42:00,37.0,34.0,-100.00,North,-999,-999.0,-999.0,87,-99.99,,,-99.99,,2013-03-22 21:42:00,
2013-03-22 21:52:00,37.0,34.0,-100.00,North,-999,-999.0,-999.0,87,-99.99,,,-99.99,,2013-03-22 21:52:00,
2013-03-22 22:00:00,36.0,34.0,-100.00,North,-999,-999.0,-999.0,89,-99.99,,,-99.99,,2013-03-22 22:00:00,
2013-03-22 22:41:00,36.0,34.0,-100.00,North,-999,-999.0,-999.0,89,-99.99,,,-99.99,,2013-03-22 22:41:00,
2013-03-22 22:52:00,36.0,34.0,-100.00,North,-999,-999.0,-999.0,89,-99.99,,,-99.99,,2013-03-22 22:52:00,
2013-03-22 23:00:00,36.0,34.0,-100.00,North,-999,-999.0,-999.0,91,-99.99,,,-99.99,,2013-03-22 23:00:00,
2013-03-22 23:41:00,36.0,34.0,-100.00,North,-999,-999.0,-999.0,91,-99.99,,,-99.99,,2013-03-22 23:41:00,
2013-03-22 23:51:00,36.0,34.0,-100.00,North,-999,-999.0,-999.0,91,-99.99,,,-99.99,,2013-03-22 23:51:00,